EN

Hourly Weather Olshanka

Today, 16 May, Sunday

Time Temperature Precipitation Wind Pressure Humidity
00:00 +18°C° 0 mm 1 mps 742 mmHg 91%
01:00 +18°C° 0 mm 1 mps 743 mmHg 90%
02:00 +18°C° 0 mm 1 mps 743 mmHg 90%
03:00 +16°C° 0 mm 1 mps 743 mmHg 90%
04:00 +18°C° 0 mm 1 mps 743 mmHg 87%
05:00 +18°C° 0 mm 1 mps 743 mmHg 85%
06:00 +17°C° 0 mm 0 mps 743 mmHg 82%
07:00 +18°C° 0 mm 0 mps 744 mmHg 76%
08:00 +20°C° 0 mm 0 mps 744 mmHg 70%
09:00 +21°C° 0 mm 0 mps 744 mmHg 63%
10:00 +24°C° 0 mm 1 mps 744 mmHg 60%
11:00 +25°C° 0 mm 1 mps 744 mmHg 57%
12:00 +26°C° 0 mm 1 mps 744 mmHg 54%
13:00 +26°C° 0.4 mm 1 mps 744 mmHg 54%
14:00 +26°C° 0.4 mm 2 mps 744 mmHg 55%
15:00 +27°C° 0.4 mm 2 mps 744 mmHg 55%
16:00 +26°C° 0.2 mm 2 mps 743 mmHg 59%
17:00 +26°C° 0.2 mm 1 mps 743 mmHg 63%
18:00 +25°C° 0.2 mm 1 mps 743 mmHg 67%
19:00 +23°C° 0.4 mm 1 mps 743 mmHg 71%
20:00 +22°C° 0.4 mm 1 mps 743 mmHg 74%
21:00 +20°C° 0.4 mm 1 mps 743 mmHg 78%
22:00 +20°C° 0 mm 1 mps 743 mmHg 80%
23:00 +18°C° 0 mm 2 mps 743 mmHg 81%

Tomorrow, 17 May, Monday

Time Temperature Precipitation Wind Pressure Humidity
00:00 +17°C° 0 mm 2 mps 743 mmHg 83%
01:00 +17°C° 0 mm 2 mps 744 mmHg 83%
02:00 +17°C° 0 mm 2 mps 744 mmHg 83%
03:00 +16°C° 0 mm 2 mps 744 mmHg 82%
04:00 +17°C° 0 mm 3 mps 744 mmHg 82%
05:00 +17°C° 0 mm 3 mps 744 mmHg 81%
06:00 +18°C° 0 mm 3 mps 744 mmHg 80%
07:00 +19°C° 0 mm 3 mps 744 mmHg 73%
08:00 +21°C° 0 mm 3 mps 744 mmHg 67%
09:00 +23°C° 0 mm 4 mps 744 mmHg 61%
10:00 +25°C° 0 mm 4 mps 744 mmHg 55%
11:00 +26°C° 0 mm 5 mps 744 mmHg 49%
12:00 +27°C° 0 mm 5 mps 744 mmHg 44%
13:00 +27°C° 0 mm 5 mps 744 mmHg 45%
14:00 +28°C° 0 mm 4 mps 744 mmHg 47%
15:00 +28°C° 0 mm 4 mps 744 mmHg 49%
16:00 +27°C° 0 mm 4 mps 744 mmHg 55%
17:00 +26°C° 0 mm 4 mps 743 mmHg 60%
18:00 +25°C° 0 mm 3 mps 743 mmHg 66%
19:00 +22°C° 0 mm 3 mps 743 mmHg 67%
20:00 +21°C° 0 mm 3 mps 743 mmHg 68%
21:00 +20°C° 0 mm 4 mps 743 mmHg 69%
22:00 +19°C° 0 mm 4 mps 743 mmHg 67%
23:00 +19°C° 0 mm 4 mps 743 mmHg 65%

Day after tomorrow, 18 May, Tuesday

Time Temperature Precipitation Wind Pressure Humidity
00:00 +18°C° 0 mm 4 mps 743 mmHg 62%
01:00 +18°C° 0 mm 4 mps 743 mmHg 60%
02:00 +18°C° 0 mm 4 mps 743 mmHg 58%
03:00 +17°C° 0 mm 4 mps 742 mmHg 56%
04:00 +17°C° 0 mm 4 mps 742 mmHg 59%
05:00 +17°C° 0 mm 4 mps 742 mmHg 62%
06:00 +17°C° 0 mm 4 mps 742 mmHg 65%
07:00 +19°C° 0 mm 5 mps 742 mmHg 62%
08:00 +21°C° 0 mm 5 mps 742 mmHg 58%
09:00 +23°C° 0 mm 5 mps 742 mmHg 55%
10:00 +25°C° 0 mm 5 mps 742 mmHg 51%
11:00 +26°C° 0 mm 5 mps 742 mmHg 48%
12:00 +28°C° 0 mm 6 mps 742 mmHg 44%
13:00 +28°C° 0 mm 6 mps 742 mmHg 47%
14:00 +28°C° 0 mm 6 mps 741 mmHg 49%
15:00 +28°C° 0 mm 7 mps 741 mmHg 52%
16:00 +27°C° 0 mm 6 mps 741 mmHg 54%
17:00 +26°C° 0 mm 6 mps 741 mmHg 56%
18:00 +24°C° 0 mm 6 mps 740 mmHg 58%
19:00 +23°C° 0 mm 6 mps 740 mmHg 57%
20:00 +22°C° 0 mm 6 mps 740 mmHg 56%
21:00 +21°C° 0 mm 6 mps 740 mmHg 56%
22:00 +21°C° 0 mm 6 mps 740 mmHg 53%
23:00 +21°C° 0 mm 6 mps 740 mmHg 51%

19 May, Wednesday

Time Temperature Precipitation Wind Pressure Humidity
00:00 +20°C° 0 mm 6 mps 740 mmHg 49%
01:00 +19°C° 0 mm 5 mps 740 mmHg 54%
02:00 +18°C° 0 mm 4 mps 740 mmHg 60%
03:00 +17°C° 0 mm 4 mps 740 mmHg 65%
04:00 +17°C° 0 mm 3 mps 740 mmHg 69%
05:00 +17°C° 0 mm 3 mps 740 mmHg 74%
06:00 +17°C° 0 mm 3 mps 740 mmHg 79%
07:00 +18°C° 0 mm 3 mps 740 mmHg 74%
08:00 +20°C° 0 mm 2 mps 740 mmHg 70%
09:00 +21°C° 0 mm 2 mps 740 mmHg 66%
10:00 +21°C° 0 mm 4 mps 741 mmHg 64%
11:00 +22°C° 0 mm 6 mps 741 mmHg 61%
12:00 +22°C° 0 mm 7 mps 741 mmHg 59%
13:00 +22°C° 0 mm 6 mps 741 mmHg 61%
14:00 +22°C° 0 mm 6 mps 741 mmHg 63%
15:00 +22°C° 0 mm 5 mps 741 mmHg 64%
16:00 +22°C° 0.3 mm 4 mps 741 mmHg 68%
17:00 +21°C° 0.3 mm 4 mps 741 mmHg 71%
18:00 +21°C° 0.3 mm 4 mps 741 mmHg 75%
19:00 +20°C° 0 mm 3 mps 741 mmHg 79%
20:00 +18°C° 0 mm 3 mps 741 mmHg 83%
21:00 +17°C° 0 mm 2 mps 741 mmHg 88%
22:00 +16°C° 0 mm 2 mps 741 mmHg 87%
23:00 +16°C° 0 mm 1 mps 741 mmHg 87%

20 May, Thursday

Time Temperature Precipitation Wind Pressure Humidity
00:00 +15°C° 0 mm 1 mps 741 mmHg 87%
01:00 +15°C° 0 mm 1 mps 741 mmHg 87%
02:00 +15°C° 0 mm 1 mps 740 mmHg 87%
03:00 +15°C° 0 mm 1 mps 740 mmHg 87%
04:00 +15°C° 0.2 mm 2 mps 740 mmHg 89%
05:00 +13°C° 0.2 mm 3 mps 740 mmHg 90%
06:00 +13°C° 0.2 mm 4 mps 740 mmHg 92%
07:00 +12°C° 1.9 mm 3 mps 741 mmHg 93%
08:00 +12°C° 1.9 mm 3 mps 741 mmHg 93%
09:00 +12°C° 1.9 mm 2 mps 741 mmHg 94%
10:00 +13°C° 0.1 mm 3 mps 742 mmHg 87%
11:00 +14°C° 0.1 mm 4 mps 742 mmHg 80%
12:00 +16°C° 0.1 mm 5 mps 743 mmHg 72%
13:00 +17°C° 0.1 mm 5 mps 743 mmHg 67%
14:00 +17°C° 0.1 mm 5 mps 743 mmHg 62%
15:00 +19°C° 0.1 mm 6 mps 744 mmHg 57%
16:00 +17°C° 0 mm 5 mps 744 mmHg 61%
17:00 +18°C° 0 mm 4 mps 744 mmHg 65%
18:00 +17°C° 0 mm 3 mps 745 mmHg 70%
19:00 +16°C° 0 mm 2 mps 745 mmHg 73%
20:00 +15°C° 0 mm 2 mps 745 mmHg 76%
21:00 +14°C° 0 mm 1 mps 745 mmHg 78%
22:00 +13°C° 0 mm 1 mps 746 mmHg 80%
23:00 +13°C° 0 mm 1 mps 746 mmHg 81%

21 May, Friday

Time Temperature Precipitation Wind Pressure Humidity
00:00 +11°C° 0 mm 0 mps 746 mmHg 82%
01:00 +12°C° 0 mm 1 mps 746 mmHg 83%
02:00 +12°C° 0 mm 1 mps 746 mmHg 83%
03:00 +12°C° 0 mm 2 mps 746 mmHg 84%
04:00 +12°C° 0 mm 2 mps 746 mmHg 84%
05:00 +13°C° 0 mm 2 mps 746 mmHg 84%
06:00 +13°C° 0 mm 2 mps 745 mmHg 85%
07:00 +13°C° 1.8 mm 2 mps 745 mmHg 88%
08:00 +13°C° 1.8 mm 2 mps 745 mmHg 91%
09:00 +13°C° 1.8 mm 2 mps 745 mmHg 95%
10:00 +13°C° 2.6 mm 2 mps 745 mmHg 95%
11:00 +13°C° 2.6 mm 2 mps 745 mmHg 96%
12:00 +13°C° 2.6 mm 2 mps 745 mmHg 96%
13:00 +14°C° 0.3 mm 2 mps 745 mmHg 96%
14:00 +14°C° 0.3 mm 2 mps 745 mmHg 95%
15:00 +14°C° 0.3 mm 2 mps 745 mmHg 94%
16:00 +14°C° 0.3 mm 2 mps 745 mmHg 94%
17:00 +14°C° 0.3 mm 2 mps 745 mmHg 94%
18:00 +14°C° 0.3 mm 2 mps 745 mmHg 94%
19:00 +14°C° 0 mm 2 mps 745 mmHg 95%
20:00 +14°C° 0 mm 2 mps 744 mmHg 96%
21:00 +13°C° 0 mm 2 mps 744 mmHg 97%
22:00 +13°C° 0.1 mm 2 mps 744 mmHg 97%
23:00 +13°C° 0.1 mm 2 mps 744 mmHg 97%
Show more

We Need Your Consent

Meteoprog and our Service Providers may store and access personal data such as cookies, device identifiers or other similar technologies on your device and process such data to personalise content and ads, as well as provide social media features and to analyse the traffic.

  • Store and/or access information on your device

    Cookies, device identifiers or other information can be stored or accessed on your device for the purposes indicated above.

  • Personalised ads and content, ad and content measurement, audience insights, and products development

    Ads and content can be personalised based on a profile. More data can be added to better personalise ads and content. Ad and content performance can be measured. Insights about the audience who saw the ads and content can be derived. Such data can be used to develop or improve user’s experience, systems and software.

By clicking ‘I Agree’ you will allow the use of indicated cookies, device identifiers, web beacons or other similar technologies. Your settings can be changed in the browser on your device.

For certain purposes, legitimate interests may be relied on, rather than consent. You can read more about this in our Privacy and Cookie Policy.